This is the latest recevied weather packets stored in our database for station/object DW9280. If no packets are shown the sender has not sent any weather packets the latest 10 day(s).
| Time | Temp. | Humidity | Pressure | Rain* | Wind** | Luminosity | Snow |
|---|---|---|---|---|---|---|---|
| 1788006683 | 23.33° C | 67% | 1008.5 hPa | 0 mm | - | 287 W/m² | - |
| 1788006452 | 23.33° C | 67% | 1008.6 hPa | 0 mm | - | 250 W/m² | - |
| 1788006077 | 23.89° C | 65% | 1008.6 hPa | 0 mm | - | 805 W/m² | - |
| 1788005778 | 23.33° C | 67% | 1008.6 hPa | 0 mm | - | 823 W/m² | - |
| 1788005553 | 23.89° C | 67% | 1008.7 hPa | 0 mm | - | 520 W/m² | - |
| 1788005173 | 23.33° C | 67% | 1008.7 hPa | 0 mm | - | 464 W/m² | - |
| 1788004871 | 23.33° C | 67% | 1008.7 hPa | 0 mm | - | 510 W/m² | - |
| 1788004650 | 23.33° C | 66% | 1008.8 hPa | 0 mm | - | 742 W/m² | - |
| 1788004347 | 23.33° C | 68% | 1008.8 hPa | 0 mm | - | 860 W/m² | - |
| 1788003960 | 22.78° C | 70% | 1008.9 hPa | 0 mm | - | 754 W/m² | - |
| 1788003659 | 22.78° C | 69% | 1008.9 hPa | 0 mm | - | 236 W/m² | - |
| 1788003358 | 22.78° C | 69% | 1009 hPa | 0 mm | - | 666 W/m² | - |
| 1788003145 | 22.78° C | 70% | 1008.9 hPa | 0 mm | - | 728 W/m² | - |
| 1788002753 | 22.78° C | 69% | 1009 hPa | 0 mm | - | 791 W/m² | - |
| 1788002453 | 23.33° C | 68% | 1009 hPa | 0 mm | - | 668 W/m² | - |
| 1788002152 | 23.33° C | 69% | 1009 hPa | 0 mm | - | 758 W/m² | - |
| 1788001851 | 22.78° C | 69% | 1008.9 hPa | 0 mm | - | 768 W/m² | - |
| 1788001551 | 22.78° C | 70% | 1009 hPa | 0 mm | - | 803 W/m² | - |
| 1788001251 | 22.78° C | 73% | 1009 hPa | 0 mm | - | 740 W/m² | - |
| 1788001043 | 22.22° C | 73% | 1009 hPa | 0 mm | - | 733 W/m² | - |
| 1788000632 | 22.22° C | 74% | 1009.1 hPa | 0 mm | - | 793 W/m² | - |
| 1788000331 | 22.22° C | 77% | 1009.1 hPa | 0 mm | - | 267 W/m² | - |
| 1788000034 | 21.67° C | 77% | 1009.2 hPa | 0 mm | - | 881 W/m² | - |
| 1787999732 | 21.67° C | 77% | 1009.2 hPa | 0 mm | - | 461 W/m² | - |
| 1787999432 | 21.67° C | 79% | 1009.1 hPa | 0 mm | - | 613 W/m² | - |
* Rain latest hour (hover to see other rain measurements)
** Current wind speed in m/s (hover to see current wind gust speed)